Year,Month,Day,Hour,Minute,Value (Times are PST for temperature in C)
2017,09,14,00,00,11.80
2017,09,14,00,01,11.80
2017,09,14,00,02,11.80
2017,09,14,00,03,11.80
2017,09,14,00,04,11.80
2017,09,14,00,05,11.80
2017,09,14,00,06,11.80
2017,09,14,00,07,11.80
2017,09,14,00,08,11.70
2017,09,14,00,09,11.70
2017,09,14,00,10,11.70
2017,09,14,00,11,11.70
2017,09,14,00,12,11.70
2017,09,14,00,13,11.80
2017,09,14,00,14,11.80
2017,09,14,00,15,11.80
2017,09,14,00,16,11.80
2017,09,14,00,17,11.80
2017,09,14,00,18,11.90
2017,09,14,00,19,11.90
2017,09,14,00,20,11.90
2017,09,14,00,21,11.90
2017,09,14,00,22,11.90
2017,09,14,00,23,12.00
2017,09,14,00,24,11.90
2017,09,14,00,25,11.90
2017,09,14,00,26,11.90
2017,09,14,00,27,11.90
2017,09,14,00,28,12.00
2017,09,14,00,29,12.00
2017,09,14,00,30,12.10
2017,09,14,00,31,12.10
2017,09,14,00,32,12.10
2017,09,14,00,33,12.20
2017,09,14,00,34,12.20
2017,09,14,00,35,12.30
2017,09,14,00,36,12.30
2017,09,14,00,37,12.30
2017,09,14,00,38,12.40
2017,09,14,00,39,12.40
2017,09,14,00,40,12.40
2017,09,14,00,41,12.40
2017,09,14,00,42,12.40
2017,09,14,00,43,12.40
2017,09,14,00,44,12.40
2017,09,14,00,45,12.40
2017,09,14,00,46,12.50
2017,09,14,00,47,12.70
2017,09,14,00,48,13.00
2017,09,14,00,49,13.50
2017,09,14,00,50,14.00
2017,09,14,00,51,14.40
2017,09,14,00,52,14.80
2017,09,14,00,53,15.20
2017,09,14,00,54,15.40
2017,09,14,00,55,15.70
2017,09,14,00,56,15.90
2017,09,14,00,57,16.10
2017,09,14,00,58,16.30
2017,09,14,00,59,16.40
2017,09,14,01,00,16.50
2017,09,14,01,01,16.60
2017,09,14,01,02,16.60
2017,09,14,01,03,16.70
2017,09,14,01,04,16.70
2017,09,14,01,05,16.80
2017,09,14,01,06,16.80
2017,09,14,01,07,16.80
2017,09,14,01,08,16.80
2017,09,14,01,09,16.80
2017,09,14,01,10,16.80
2017,09,14,01,11,16.80
2017,09,14,01,12,16.90
2017,09,14,01,13,16.90
2017,09,14,01,14,16.90
2017,09,14,01,15,16.90
2017,09,14,01,16,16.90
2017,09,14,01,17,16.90
2017,09,14,01,18,16.90
2017,09,14,01,19,16.90
2017,09,14,01,20,16.90
2017,09,14,01,21,16.90
2017,09,14,01,22,16.90
2017,09,14,01,23,17.00
2017,09,14,01,24,17.00
2017,09,14,01,25,17.00
2017,09,14,01,26,17.00
2017,09,14,01,27,17.00
2017,09,14,01,28,17.00
2017,09,14,01,29,17.00
2017,09,14,01,30,17.00
2017,09,14,01,31,17.00
2017,09,14,01,32,17.00
2017,09,14,01,33,17.00
2017,09,14,01,34,17.10
2017,09,14,01,35,17.10
2017,09,14,01,36,17.10
2017,09,14,01,37,17.10
2017,09,14,01,38,17.10
2017,09,14,01,39,17.10
2017,09,14,01,40,17.10
2017,09,14,01,41,17.10
2017,09,14,01,42,17.10
2017,09,14,01,43,17.20
2017,09,14,01,44,17.20
2017,09,14,01,45,17.20
2017,09,14,01,46,17.20
2017,09,14,01,47,17.20
2017,09,14,01,48,17.20
2017,09,14,01,49,17.20
2017,09,14,01,50,17.20
2017,09,14,01,51,17.20
2017,09,14,01,52,17.20
2017,09,14,01,53,17.20
2017,09,14,01,54,17.20
2017,09,14,01,55,17.20
2017,09,14,01,56,17.20
2017,09,14,01,57,17.20
2017,09,14,01,58,17.20
2017,09,14,01,59,17.10
2017,09,14,02,00,17.10
2017,09,14,02,01,17.10
2017,09,14,02,02,17.10
2017,09,14,02,03,17.10
2017,09,14,02,04,17.10
2017,09,14,02,05,17.10
2017,09,14,02,06,17.10
2017,09,14,02,07,17.10
2017,09,14,02,08,17.10
2017,09,14,02,09,17.20
2017,09,14,02,10,17.20
2017,09,14,02,11,17.20
2017,09,14,02,12,17.20
2017,09,14,02,13,17.20
2017,09,14,02,14,17.20
2017,09,14,02,15,17.20
2017,09,14,02,16,17.30
2017,09,14,02,17,17.30
2017,09,14,02,18,17.30
2017,09,14,02,19,17.30
2017,09,14,02,20,17.30
2017,09,14,02,21,17.30
2017,09,14,02,22,17.30
2017,09,14,02,23,17.30
2017,09,14,02,24,17.30
2017,09,14,02,25,17.30
2017,09,14,02,26,17.30
2017,09,14,02,27,17.30
2017,09,14,02,28,17.30
2017,09,14,02,29,17.30
2017,09,14,02,30,17.30
2017,09,14,02,31,17.30
2017,09,14,02,32,17.30
2017,09,14,02,33,17.30
2017,09,14,02,34,17.30
2017,09,14,02,35,17.30
2017,09,14,02,36,17.30
2017,09,14,02,37,17.30
2017,09,14,02,38,17.20
2017,09,14,02,39,17.20
2017,09,14,02,40,17.20
2017,09,14,02,41,17.30
2017,09,14,02,42,17.30
2017,09,14,02,43,17.30
2017,09,14,02,44,17.30
2017,09,14,02,45,17.30
2017,09,14,02,46,17.30
2017,09,14,02,47,17.30
2017,09,14,02,48,17.30
2017,09,14,02,49,17.30
2017,09,14,02,50,17.20
2017,09,14,02,51,17.20
2017,09,14,02,52,17.20
2017,09,14,02,53,17.10
2017,09,14,02,54,17.10
2017,09,14,02,55,17.10
2017,09,14,02,56,17.10
2017,09,14,02,57,17.10
2017,09,14,02,58,17.00
2017,09,14,02,59,17.00
2017,09,14,03,00,17.00
2017,09,14,03,01,16.90
2017,09,14,03,02,16.90
2017,09,14,03,03,16.90
2017,09,14,03,04,16.90
2017,09,14,03,05,16.90
2017,09,14,03,06,16.80
2017,09,14,03,07,16.80
2017,09,14,03,08,16.80
2017,09,14,03,09,16.80
2017,09,14,03,10,16.80
2017,09,14,03,11,16.80
2017,09,14,03,12,16.80
2017,09,14,03,13,16.90
2017,09,14,03,14,16.90
2017,09,14,03,15,16.90
2017,09,14,03,16,16.90
2017,09,14,03,17,16.90
2017,09,14,03,18,16.90
2017,09,14,03,19,16.90
2017,09,14,03,20,16.90
2017,09,14,03,21,16.90
2017,09,14,03,22,16.80
2017,09,14,03,23,16.80
2017,09,14,03,24,16.80
2017,09,14,03,25,16.80
2017,09,14,03,26,16.70
2017,09,14,03,27,16.70
2017,09,14,03,28,16.70
2017,09,14,03,29,16.70
2017,09,14,03,30,16.60
2017,09,14,03,31,16.60
2017,09,14,03,32,16.60
2017,09,14,03,33,16.60
2017,09,14,03,34,16.60
2017,09,14,03,35,16.60
2017,09,14,03,36,16.60
2017,09,14,03,37,16.60
2017,09,14,03,38,16.60
2017,09,14,03,39,16.50
2017,09,14,03,40,16.50
2017,09,14,03,41,16.50
2017,09,14,03,42,16.50
2017,09,14,03,43,16.40
2017,09,14,03,44,16.40
2017,09,14,03,45,16.40
2017,09,14,03,46,16.40
2017,09,14,03,47,16.40
2017,09,14,03,48,16.40
2017,09,14,03,49,16.40
2017,09,14,03,50,16.30
2017,09,14,03,51,16.30
2017,09,14,03,52,16.30
2017,09,14,03,53,16.30
2017,09,14,03,54,16.30
2017,09,14,03,55,16.30
2017,09,14,03,56,16.40
2017,09,14,03,57,16.40
2017,09,14,03,58,16.40
2017,09,14,03,59,16.40
2017,09,14,04,00,16.40
2017,09,14,04,01,16.30
2017,09,14,04,02,16.30
2017,09,14,04,03,16.30
2017,09,14,04,04,16.30
2017,09,14,04,08,16.30
2017,09,14,04,09,16.30
2017,09,14,04,10,16.30
2017,09,14,04,11,16.30
2017,09,14,04,12,16.30
2017,09,14,04,13,16.30
2017,09,14,04,14,16.30
2017,09,14,04,15,16.30
2017,09,14,04,16,16.30
2017,09,14,04,17,16.30
2017,09,14,04,18,16.30
2017,09,14,04,19,16.30
2017,09,14,04,20,16.30
2017,09,14,04,21,16.30
2017,09,14,04,22,16.30
2017,09,14,04,23,16.20
2017,09,14,04,24,16.20
2017,09,14,04,25,16.20
2017,09,14,04,26,16.20
2017,09,14,04,27,16.20
2017,09,14,04,28,16.10
2017,09,14,04,29,16.10
2017,09,14,04,30,16.10
2017,09,14,04,31,16.10
2017,09,14,04,32,16.10
2017,09,14,04,33,16.00
2017,09,14,04,34,16.00
2017,09,14,04,35,15.90
2017,09,14,04,36,15.90
2017,09,14,04,37,15.80
2017,09,14,04,38,15.80
2017,09,14,04,39,15.80
2017,09,14,04,40,15.70
2017,09,14,04,41,15.70
2017,09,14,04,42,15.60
2017,09,14,04,43,15.60
2017,09,14,04,44,15.60
2017,09,14,04,45,15.60
2017,09,14,04,46,15.60
2017,09,14,04,47,15.60
2017,09,14,04,48,15.60
2017,09,14,04,49,15.60
2017,09,14,04,50,15.60
2017,09,14,04,51,15.60
2017,09,14,04,52,15.60
2017,09,14,04,53,15.60
2017,09,14,04,54,15.70
2017,09,14,04,55,15.70
2017,09,14,04,56,15.70
2017,09,14,04,57,15.70
2017,09,14,04,58,15.80
2017,09,14,04,59,15.80
2017,09,14,05,00,15.80
2017,09,14,05,01,15.80
2017,09,14,05,02,15.80
2017,09,14,05,03,15.80
2017,09,14,05,04,15.80
2017,09,14,05,05,15.80
2017,09,14,05,06,15.90
2017,09,14,05,07,15.90
2017,09,14,05,08,15.90
2017,09,14,05,09,15.90
2017,09,14,05,10,15.90
2017,09,14,05,11,15.90
2017,09,14,05,12,15.90
2017,09,14,05,13,15.90
2017,09,14,05,14,15.90
2017,09,14,05,15,15.80
2017,09,14,05,16,15.80
2017,09,14,05,17,15.90
2017,09,14,05,18,15.90
2017,09,14,05,19,15.90
2017,09,14,05,20,15.90
2017,09,14,05,21,15.90
2017,09,14,05,22,15.90
2017,09,14,05,23,15.90
2017,09,14,05,24,15.90
2017,09,14,05,25,15.90
2017,09,14,05,26,15.90
2017,09,14,05,27,15.90
2017,09,14,05,28,15.90
2017,09,14,05,29,15.90
2017,09,14,05,30,15.90
2017,09,14,05,31,15.90
2017,09,14,05,32,15.90
2017,09,14,05,33,15.90
2017,09,14,05,34,15.80
2017,09,14,05,35,15.80
2017,09,14,05,36,15.80
2017,09,14,05,37,15.80
2017,09,14,05,38,15.80
2017,09,14,05,39,15.80
2017,09,14,05,40,15.80
2017,09,14,05,41,15.80
2017,09,14,05,42,15.80
2017,09,14,05,43,15.80
2017,09,14,05,44,15.80
2017,09,14,05,45,15.80
2017,09,14,05,46,15.80
2017,09,14,05,47,15.80
2017,09,14,05,48,15.80
2017,09,14,05,49,15.80
2017,09,14,05,50,15.80
2017,09,14,05,51,15.80
2017,09,14,05,52,15.80
2017,09,14,05,53,15.80
2017,09,14,05,54,15.80
2017,09,14,05,55,15.80
2017,09,14,05,56,15.80
2017,09,14,05,57,15.80
2017,09,14,05,58,15.80
2017,09,14,05,59,15.80
2017,09,14,06,00,15.80
2017,09,14,06,01,15.80
2017,09,14,06,02,15.80
2017,09,14,06,03,15.80
2017,09,14,06,04,15.80
2017,09,14,06,05,15.80
2017,09,14,06,06,15.80
2017,09,14,06,07,15.80
2017,09,14,06,08,15.80
2017,09,14,06,09,15.80
2017,09,14,06,10,15.90
2017,09,14,06,11,15.90
2017,09,14,06,12,15.90
2017,09,14,06,13,15.90
2017,09,14,06,14,15.90
2017,09,14,06,15,15.90
2017,09,14,06,16,15.90
2017,09,14,06,17,15.90
2017,09,14,06,18,15.90
2017,09,14,06,19,15.90
2017,09,14,06,20,15.90
2017,09,14,06,21,15.90
2017,09,14,06,22,15.90
2017,09,14,06,23,15.90
2017,09,14,06,24,15.90
2017,09,14,06,25,15.90
2017,09,14,06,26,16.00
2017,09,14,06,27,16.00
2017,09,14,06,28,16.00
2017,09,14,06,29,16.00
2017,09,14,06,30,16.00
2017,09,14,06,31,16.00
2017,09,14,06,32,16.10
2017,09,14,06,33,16.10
2017,09,14,06,34,16.10
2017,09,14,06,35,16.10
2017,09,14,06,36,16.10
2017,09,14,06,37,16.10
2017,09,14,06,38,16.10
2017,09,14,06,39,16.10
2017,09,14,06,40,16.10
2017,09,14,06,41,16.10
2017,09,14,06,42,16.10
2017,09,14,06,43,16.10
2017,09,14,06,44,16.10
2017,09,14,06,45,16.10
2017,09,14,06,46,16.10
2017,09,14,06,47,16.10
2017,09,14,06,48,16.10
2017,09,14,06,49,16.10
2017,09,14,06,50,16.10
2017,09,14,06,51,16.10
2017,09,14,06,52,16.10
2017,09,14,06,53,16.10
2017,09,14,06,54,16.10
2017,09,14,06,55,16.10
2017,09,14,06,56,16.10
2017,09,14,06,57,16.10
2017,09,14,06,58,16.10
2017,09,14,06,59,16.10
2017,09,14,07,00,16.10
2017,09,14,07,01,16.10
2017,09,14,07,02,16.20
2017,09,14,07,03,16.20
2017,09,14,07,04,16.20
2017,09,14,07,05,16.20
2017,09,14,07,06,16.20
2017,09,14,07,07,16.20
2017,09,14,07,08,16.20
2017,09,14,07,09,16.20
2017,09,14,07,10,16.20
2017,09,14,07,11,16.20
2017,09,14,07,12,16.20
2017,09,14,07,13,16.20
2017,09,14,07,14,16.20
2017,09,14,07,15,16.20
2017,09,14,07,16,16.20
2017,09,14,07,17,16.20
2017,09,14,07,18,16.10
2017,09,14,07,19,16.20
2017,09,14,07,20,16.10
2017,09,14,07,21,16.10
2017,09,14,07,22,16.10
2017,09,14,07,23,16.10
2017,09,14,07,24,16.10
2017,09,14,07,25,16.10
2017,09,14,07,26,16.10
2017,09,14,07,27,16.10
2017,09,14,07,28,16.10
2017,09,14,07,29,16.10
2017,09,14,07,30,16.10
2017,09,14,07,31,16.10
2017,09,14,07,32,16.10
2017,09,14,07,33,16.10
2017,09,14,07,34,16.20
2017,09,14,07,35,16.10
2017,09,14,07,36,16.10
2017,09,14,07,37,16.10
2017,09,14,07,38,16.10
2017,09,14,07,39,16.10
2017,09,14,07,40,16.10
2017,09,14,07,41,16.20
2017,09,14,07,42,16.20
2017,09,14,07,43,16.20
2017,09,14,07,44,16.20
2017,09,14,07,45,16.20
2017,09,14,07,46,16.20
2017,09,14,07,47,16.20
2017,09,14,07,48,16.20
2017,09,14,07,49,16.20
2017,09,14,07,50,16.20
2017,09,14,07,51,16.20
2017,09,14,07,52,16.20
2017,09,14,07,53,16.20
2017,09,14,07,54,16.20
2017,09,14,07,55,16.20
2017,09,14,07,56,16.30
2017,09,14,07,57,16.30
2017,09,14,07,58,16.30
2017,09,14,07,59,16.30
2017,09,14,08,00,16.30
2017,09,14,08,01,16.30
2017,09,14,08,02,16.30
2017,09,14,08,03,16.40
2017,09,14,08,04,16.40
2017,09,14,08,05,16.40
2017,09,14,08,06,16.40
2017,09,14,08,07,16.50
2017,09,14,08,08,16.50
2017,09,14,08,09,16.50
2017,09,14,08,10,16.60
2017,09,14,08,11,16.60
2017,09,14,08,12,16.60
2017,09,14,08,13,16.60
2017,09,14,08,14,16.60
2017,09,14,08,15,16.60
2017,09,14,08,16,16.70
2017,09,14,08,17,16.70
2017,09,14,08,18,16.70
2017,09,14,08,19,16.70
2017,09,14,08,20,16.80
2017,09,14,08,21,16.80
2017,09,14,08,22,16.80
2017,09,14,08,23,16.80
2017,09,14,08,24,16.80
2017,09,14,08,25,16.80
2017,09,14,08,26,16.80
2017,09,14,08,27,16.80
2017,09,14,08,28,16.80
2017,09,14,08,29,16.80
2017,09,14,08,30,16.80
2017,09,14,08,31,16.80
2017,09,14,08,32,16.80
2017,09,14,08,33,16.90
2017,09,14,08,34,16.90
2017,09,14,08,35,16.90
2017,09,14,08,36,16.90
2017,09,14,08,37,16.90
2017,09,14,08,38,16.90
2017,09,14,08,39,17.00
2017,09,14,08,40,17.00
2017,09,14,08,41,17.00
2017,09,14,08,42,17.00
2017,09,14,08,43,17.00
2017,09,14,08,44,17.00
2017,09,14,08,45,17.10
2017,09,14,08,46,17.10
2017,09,14,08,47,17.10
2017,09,14,08,48,17.10
2017,09,14,08,49,17.10
2017,09,14,08,50,17.10
2017,09,14,08,51,17.10
2017,09,14,08,52,17.10
2017,09,14,08,53,17.20
2017,09,14,08,54,17.20
2017,09,14,08,55,17.20
2017,09,14,08,56,17.20
2017,09,14,08,57,17.20
2017,09,14,08,58,17.20
2017,09,14,08,59,17.20
2017,09,14,09,00,17.30
2017,09,14,09,01,17.30
2017,09,14,09,02,17.30
2017,09,14,09,03,17.30
2017,09,14,09,04,17.30
2017,09,14,09,05,17.30
2017,09,14,09,06,17.30
2017,09,14,09,07,17.40
2017,09,14,09,08,17.40
2017,09,14,09,09,17.40
2017,09,14,09,10,17.40
2017,09,14,09,11,17.50
2017,09,14,09,12,17.50
2017,09,14,09,13,17.50
2017,09,14,09,14,17.60
2017,09,14,09,15,17.60
2017,09,14,09,16,17.60
2017,09,14,09,17,17.60
2017,09,14,09,18,17.70
2017,09,14,09,19,17.70
2017,09,14,09,20,17.70
2017,09,14,09,21,17.70
2017,09,14,09,22,17.70
2017,09,14,09,23,17.70
2017,09,14,09,24,17.80
2017,09,14,09,25,17.80
2017,09,14,09,26,17.80
2017,09,14,09,27,17.80
2017,09,14,09,28,17.90
2017,09,14,09,29,17.90
2017,09,14,09,30,17.90
2017,09,14,09,31,17.90
2017,09,14,09,32,18.00
2017,09,14,09,33,18.00
2017,09,14,09,34,18.00
2017,09,14,09,35,18.10
2017,09,14,09,36,18.10
2017,09,14,09,37,18.10
2017,09,14,09,38,18.10
2017,09,14,09,39,18.10
2017,09,14,09,40,18.20
2017,09,14,09,41,18.20
2017,09,14,09,42,18.20
2017,09,14,09,43,18.20
2017,09,14,09,44,18.20
2017,09,14,09,45,18.20
2017,09,14,09,46,18.20
2017,09,14,09,47,18.30
2017,09,14,09,48,18.30
2017,09,14,09,49,18.30
2017,09,14,09,50,18.30
2017,09,14,09,51,18.30
2017,09,14,09,52,18.30
2017,09,14,09,53,18.30
2017,09,14,09,54,18.30
2017,09,14,09,55,18.30
2017,09,14,09,56,18.30
2017,09,14,09,57,18.40
2017,09,14,09,58,18.40
2017,09,14,09,59,18.40
2017,09,14,10,00,18.40
2017,09,14,10,01,18.40
2017,09,14,10,02,18.40
2017,09,14,10,03,18.40
2017,09,14,10,04,18.50
2017,09,14,10,05,18.50
2017,09,14,10,06,18.60
2017,09,14,10,07,18.60
2017,09,14,10,08,18.60
2017,09,14,10,09,18.60
2017,09,14,10,10,18.70
2017,09,14,10,11,18.70
2017,09,14,10,12,18.70
2017,09,14,10,13,18.70
2017,09,14,10,14,18.80
2017,09,14,10,15,18.80
2017,09,14,10,16,18.80
2017,09,14,10,17,18.80
2017,09,14,10,18,18.80
2017,09,14,10,19,18.80
2017,09,14,10,20,18.80
2017,09,14,10,21,18.80
2017,09,14,10,22,18.90
2017,09,14,10,23,18.90
2017,09,14,10,24,18.90
2017,09,14,10,25,18.90
2017,09,14,10,26,18.90
2017,09,14,10,27,19.00
2017,09,14,10,28,19.00
2017,09,14,10,29,19.00
2017,09,14,10,30,19.10
2017,09,14,10,31,19.10
2017,09,14,10,32,19.10
2017,09,14,10,33,19.10
2017,09,14,10,34,19.20
2017,09,14,10,35,19.20
2017,09,14,10,36,19.20
2017,09,14,10,37,19.20
2017,09,14,10,38,19.20
2017,09,14,10,39,19.30
2017,09,14,10,40,19.30
2017,09,14,10,41,19.30
2017,09,14,10,42,19.30
2017,09,14,10,43,19.30
2017,09,14,10,44,19.30
2017,09,14,10,45,19.40
2017,09,14,10,46,19.40
2017,09,14,10,47,19.50
2017,09,14,10,48,19.60
2017,09,14,10,49,19.70
2017,09,14,10,50,19.80
2017,09,14,10,51,19.80
2017,09,14,10,52,19.90
2017,09,14,10,53,19.90
2017,09,14,10,54,20.00
2017,09,14,10,55,20.00
2017,09,14,10,56,20.10
2017,09,14,10,57,20.10
2017,09,14,10,58,20.20
2017,09,14,10,59,20.20
2017,09,14,11,00,20.20
2017,09,14,11,01,20.20
2017,09,14,11,02,20.20
2017,09,14,11,03,20.20
2017,09,14,11,04,20.20
2017,09,14,11,05,20.20
2017,09,14,11,06,20.20
2017,09,14,11,07,20.20
2017,09,14,11,08,20.30
2017,09,14,11,09,20.30
2017,09,14,11,10,20.30
2017,09,14,11,11,20.30
2017,09,14,11,12,20.30
2017,09,14,11,13,20.30
2017,09,14,11,14,20.20
2017,09,14,11,15,20.20
2017,09,14,11,16,20.20
2017,09,14,11,17,20.20
2017,09,14,11,18,20.20
2017,09,14,11,19,20.20
2017,09,14,11,20,20.20
2017,09,14,11,21,20.20
2017,09,14,11,22,20.20
2017,09,14,11,23,20.20
2017,09,14,11,24,20.30
2017,09,14,11,25,20.30
2017,09,14,11,26,20.30
2017,09,14,11,27,20.30
2017,09,14,11,28,20.30
2017,09,14,11,29,20.30
2017,09,14,11,30,20.30
2017,09,14,11,31,20.30
2017,09,14,11,32,20.30
2017,09,14,11,33,20.30
2017,09,14,11,34,20.30
2017,09,14,11,35,20.30
2017,09,14,11,36,20.30
2017,09,14,11,37,20.30
2017,09,14,11,38,20.40
2017,09,14,11,39,20.40
2017,09,14,11,40,20.50
2017,09,14,11,41,20.50
2017,09,14,11,42,20.60
2017,09,14,11,43,20.70
2017,09,14,11,44,20.70
2017,09,14,11,45,20.70
2017,09,14,11,46,20.80
2017,09,14,11,47,20.80
2017,09,14,11,48,20.90
2017,09,14,11,49,21.00
2017,09,14,11,50,21.00
2017,09,14,11,51,21.10
2017,09,14,11,52,21.10
2017,09,14,11,53,21.20
2017,09,14,11,54,21.10
2017,09,14,11,55,21.10
2017,09,14,11,56,21.10
2017,09,14,11,57,21.10
2017,09,14,11,58,21.10
2017,09,14,11,59,21.20
2017,09,14,12,00,21.20
2017,09,14,12,01,21.20
2017,09,14,12,02,21.30
2017,09,14,12,03,21.30
2017,09,14,12,04,21.30
2017,09,14,12,05,21.30
2017,09,14,12,06,21.40
2017,09,14,12,07,21.40
2017,09,14,12,08,21.40
2017,09,14,12,09,21.40
2017,09,14,12,10,21.30
2017,09,14,12,11,21.20
2017,09,14,12,12,21.20
2017,09,14,12,13,21.20
2017,09,14,12,14,21.20
2017,09,14,12,15,21.20
2017,09,14,12,16,21.30
2017,09,14,12,17,21.30
2017,09,14,12,18,21.20
2017,09,14,12,19,21.20
2017,09,14,12,20,21.20
2017,09,14,12,21,21.20
2017,09,14,12,22,21.20
2017,09,14,12,23,21.20
2017,09,14,12,24,21.20
2017,09,14,12,25,21.20
2017,09,14,12,26,21.20
2017,09,14,12,27,21.20
2017,09,14,12,28,21.20
2017,09,14,12,29,21.20
2017,09,14,12,30,21.20
2017,09,14,12,31,21.20
2017,09,14,12,32,21.20
2017,09,14,12,33,21.20
2017,09,14,12,34,21.20
2017,09,14,12,35,21.30
2017,09,14,12,36,21.30
2017,09,14,12,37,21.30
2017,09,14,12,38,21.20
2017,09,14,12,39,21.20
2017,09,14,12,40,21.30
2017,09,14,12,41,21.30
2017,09,14,12,42,21.30
2017,09,14,12,43,21.30
2017,09,14,12,44,21.40
2017,09,14,12,45,21.40
2017,09,14,12,46,21.50
2017,09,14,12,47,21.60
2017,09,14,12,48,21.60
2017,09,14,12,49,21.60
2017,09,14,12,50,21.70
2017,09,14,12,51,21.70
2017,09,14,12,52,21.70
2017,09,14,12,53,21.70
2017,09,14,12,54,21.70
2017,09,14,12,55,21.70
2017,09,14,12,56,21.70
2017,09,14,12,57,21.70
2017,09,14,12,58,21.70
2017,09,14,12,59,21.70
2017,09,14,13,00,21.80
2017,09,14,13,01,21.80
2017,09,14,13,02,21.80
2017,09,14,13,03,21.90
2017,09,14,13,04,21.90
2017,09,14,13,05,21.90
2017,09,14,13,06,21.90
2017,09,14,13,07,21.80
2017,09,14,13,08,21.80
2017,09,14,13,09,21.80
2017,09,14,13,10,21.80
2017,09,14,13,11,21.80
2017,09,14,13,12,21.90
2017,09,14,13,13,22.00
2017,09,14,13,14,22.00
2017,09,14,13,15,22.10
2017,09,14,13,16,22.10
2017,09,14,13,17,22.10
2017,09,14,13,18,22.10
2017,09,14,13,19,22.20
2017,09,14,13,20,22.20
2017,09,14,13,21,22.20
2017,09,14,13,22,22.20
2017,09,14,13,23,22.30
2017,09,14,13,24,22.30
2017,09,14,13,25,22.40
2017,09,14,13,26,22.40
2017,09,14,13,27,22.40
2017,09,14,13,28,22.40
2017,09,14,13,29,22.30
2017,09,14,13,30,22.30
2017,09,14,13,31,22.30
2017,09,14,13,32,22.30
2017,09,14,13,33,22.40
2017,09,14,13,34,22.40
2017,09,14,13,35,22.50
2017,09,14,13,36,22.50
2017,09,14,13,37,22.50
2017,09,14,13,38,22.50
2017,09,14,13,39,22.50
2017,09,14,13,40,22.50
2017,09,14,13,41,22.50
2017,09,14,13,42,22.60
2017,09,14,13,43,22.60
2017,09,14,13,44,22.60
2017,09,14,13,45,22.60
2017,09,14,13,46,22.60
2017,09,14,13,47,22.60
2017,09,14,13,48,22.50
2017,09,14,13,49,22.40
2017,09,14,13,50,22.40
2017,09,14,13,51,22.40
2017,09,14,13,52,22.40
2017,09,14,13,53,22.30
2017,09,14,13,54,22.30
2017,09,14,13,55,22.30
2017,09,14,13,56,22.30
2017,09,14,13,57,22.30
2017,09,14,13,58,22.30
2017,09,14,13,59,22.30
2017,09,14,14,00,22.30
2017,09,14,14,01,22.40
2017,09,14,14,02,22.50
2017,09,14,14,03,22.60
2017,09,14,14,04,22.70
2017,09,14,14,05,22.80
2017,09,14,14,06,22.90
2017,09,14,14,07,22.90
2017,09,14,14,08,23.00
2017,09,14,14,09,23.00
2017,09,14,14,10,23.00
2017,09,14,14,11,23.10
2017,09,14,14,12,23.10
2017,09,14,14,13,23.10
2017,09,14,14,14,23.10
2017,09,14,14,15,23.00
2017,09,14,14,16,23.00
2017,09,14,14,17,23.00
2017,09,14,14,18,22.90
2017,09,14,14,19,22.80
2017,09,14,14,20,22.80
2017,09,14,14,21,22.80
2017,09,14,14,22,22.90
2017,09,14,14,23,22.90
2017,09,14,14,24,22.90
2017,09,14,14,25,23.00
2017,09,14,14,26,23.10
2017,09,14,14,27,23.10
2017,09,14,14,28,23.10
2017,09,14,14,29,23.20
2017,09,14,14,30,23.20
2017,09,14,14,31,23.20
2017,09,14,14,32,23.30
2017,09,14,14,33,23.30
2017,09,14,14,34,23.30
2017,09,14,14,35,23.30
2017,09,14,14,36,23.20
2017,09,14,14,37,23.00
2017,09,14,14,38,22.90
2017,09,14,14,39,22.80
2017,09,14,14,40,22.70
2017,09,14,14,41,22.60
2017,09,14,14,42,22.60
2017,09,14,14,43,22.60
2017,09,14,14,44,22.60
2017,09,14,14,45,22.70
2017,09,14,14,46,22.80
2017,09,14,14,47,22.80
2017,09,14,14,48,22.80
2017,09,14,14,49,22.80
2017,09,14,14,50,22.80
2017,09,14,14,51,22.80
2017,09,14,14,52,22.80
2017,09,14,14,53,22.90
2017,09,14,14,54,22.90
2017,09,14,14,55,23.00
2017,09,14,14,56,23.00
2017,09,14,14,57,23.00
2017,09,14,14,58,23.00
2017,09,14,14,59,23.00
2017,09,14,15,00,23.00
2017,09,14,15,01,23.10
2017,09,14,15,02,23.10
2017,09,14,15,03,23.10
2017,09,14,15,04,23.20
2017,09,14,15,05,23.30
2017,09,14,15,06,23.40
2017,09,14,15,07,23.50
2017,09,14,15,08,23.60
2017,09,14,15,09,23.60
2017,09,14,15,10,23.70
2017,09,14,15,11,23.70
2017,09,14,15,12,23.70
2017,09,14,15,13,23.70
2017,09,14,15,14,23.70
2017,09,14,15,15,23.70
2017,09,14,15,16,23.70
2017,09,14,15,17,23.60
2017,09,14,15,18,23.60
2017,09,14,15,19,23.50
2017,09,14,15,20,23.40
2017,09,14,15,21,23.30
2017,09,14,15,22,23.30
2017,09,14,15,23,23.30
2017,09,14,15,24,23.30
2017,09,14,15,25,23.40
2017,09,14,15,26,23.50
2017,09,14,15,27,23.50
2017,09,14,15,28,23.60
2017,09,14,15,29,23.70
2017,09,14,15,30,23.80
2017,09,14,15,31,23.80
2017,09,14,15,32,23.80
2017,09,14,15,33,23.80
2017,09,14,15,34,23.80
2017,09,14,15,35,23.80
2017,09,14,15,36,23.80
2017,09,14,15,37,23.80
2017,09,14,15,38,23.90
2017,09,14,15,39,23.90
2017,09,14,15,40,23.90
2017,09,14,15,41,23.90
2017,09,14,15,42,23.90
2017,09,14,15,43,23.90
2017,09,14,15,44,23.90
2017,09,14,15,45,23.80
2017,09,14,15,46,23.80
2017,09,14,15,47,23.80
2017,09,14,15,48,23.80
2017,09,14,15,49,23.80
2017,09,14,15,50,23.80
2017,09,14,15,51,23.80
2017,09,14,15,52,23.70
2017,09,14,15,53,23.70
2017,09,14,15,54,23.60
2017,09,14,15,55,23.60
2017,09,14,15,56,23.50
2017,09,14,15,57,23.50
2017,09,14,15,58,23.40
2017,09,14,15,59,23.40
2017,09,14,16,00,23.40
2017,09,14,16,01,23.40
2017,09,14,16,02,23.40
2017,09,14,16,03,23.40
2017,09,14,16,04,23.40
2017,09,14,16,05,23.40
2017,09,14,16,06,23.50
2017,09,14,16,07,23.50
2017,09,14,16,08,23.60
2017,09,14,16,09,23.70
2017,09,14,16,10,23.70
2017,09,14,16,11,23.70
2017,09,14,16,12,23.70
2017,09,14,16,13,23.70
2017,09,14,16,14,23.70
2017,09,14,16,15,23.60
2017,09,14,16,16,23.70
2017,09,14,16,17,23.70
2017,09,14,16,18,23.70
2017,09,14,16,19,23.70
2017,09,14,16,20,23.70
2017,09,14,16,21,23.70
2017,09,14,16,22,23.70
2017,09,14,16,23,23.70
2017,09,14,16,24,23.70
2017,09,14,16,25,23.70
2017,09,14,16,26,23.70
2017,09,14,16,27,23.70
2017,09,14,16,28,23.70
2017,09,14,16,29,23.70
2017,09,14,16,30,23.60
2017,09,14,16,31,23.60
2017,09,14,16,32,23.60
2017,09,14,16,33,23.60
2017,09,14,16,34,23.60
2017,09,14,16,35,23.60
2017,09,14,16,36,23.50
2017,09,14,16,37,23.50
2017,09,14,16,38,23.50
2017,09,14,16,39,23.50
2017,09,14,16,40,23.50
2017,09,14,16,41,23.50
2017,09,14,16,42,23.50
2017,09,14,16,43,23.50
2017,09,14,16,44,23.50
2017,09,14,16,45,23.50
2017,09,14,16,46,23.50
2017,09,14,16,47,23.50
2017,09,14,16,48,23.50
2017,09,14,16,49,23.50
2017,09,14,16,50,23.50
2017,09,14,16,51,23.50
2017,09,14,16,52,23.50
2017,09,14,16,53,23.50
2017,09,14,16,54,23.40
2017,09,14,16,55,23.40
2017,09,14,16,56,23.50
2017,09,14,16,57,23.40
2017,09,14,16,58,23.50
2017,09,14,16,59,23.40
2017,09,14,17,00,23.40
2017,09,14,17,01,23.50
2017,09,14,17,02,23.50
2017,09,14,17,03,23.50
2017,09,14,17,04,23.50
2017,09,14,17,05,23.50
2017,09,14,17,06,23.50
2017,09,14,17,07,23.50
2017,09,14,17,08,23.50
2017,09,14,17,09,23.50
2017,09,14,17,10,23.50
2017,09,14,17,11,23.50
2017,09,14,17,12,23.40
2017,09,14,17,13,23.40
2017,09,14,17,14,23.40
2017,09,14,17,15,23.30
2017,09,14,17,16,23.30
2017,09,14,17,17,23.30
2017,09,14,17,18,23.30
2017,09,14,17,19,23.30
2017,09,14,17,20,23.20
2017,09,14,17,21,23.20
2017,09,14,17,22,23.20